885  
SXUS51 KOKX 231557  
OSOOKX  
NEW YORK CITY METROPOLITAN AREA WEATHER ROUNDUP  
NATIONAL WEATHER SERVICE NEW YORK NY  
1100 AM EST SAT JAN 23 2021  
 
CITY SKY/WX TMP DP RH WIND PRES REMARKS  
CENTRAL PARK MOSUNNY 30 7 37 NW15G22 30.07S WCI 19  
LAGUARDIA ARPT MOSUNNY 33 11 39 NW22G28 30.06R WCI 21  
KENNEDY INTL MOSUNNY 32 7 35 NW23G32 30.05S WCI 19  
NEWARK LIBERTY MOSUNNY 31 6 35 NW23G36 30.08R WCI 18  
TETERBORO ARPT PTSUNNY 30 8 39 N14G31 30.06R WCI 19  
BRONX LEHMAN C N/A 30 10 43 NW16 N/A WCI 19  
QUEENS COLLEGE N/A 30 9 40 NW22G36 N/A WCI 17  
BREEZY POINT NOT AVBL  
BROOKLYN COLL N/A 32 7 34 NW21G33 N/A WCI 20  
STATEN ISLAND N/A 30 9 40 NW18 N/A WCI 18  
 
>>>>>>>>>>>>>>>>>>>>>>>>>>>>>>>>> KEY <<<<<<<<<<<<<<<<<<<<<<<<<<<<<<<  
> SKY/WX - SKY CONDITION/PRESENT : R : WCI - WIND CHILL INDEX <  
> WEATHER : E : VSB - VISIBILITY IN MILES <  
> TMP - TEMPERATURE IN DEG F : M : HX - HEAT INDEX <  
> DP - DEW POINT TEMPERATURE : A : TC - TEMPERATURE IN <  
> RH - RELATIVE HUMIDITY : R : CELSIUS <  
> WIND - DIRECTION/SPEED (MPH) : K : VRB - VARIABLE WIND DIR <  
> PRES - PRESSURE (IN HG) : S : <  
>>>>>>>>>>>>>>>>>>>>>>>>>>>>>>>>> KEY <<<<<<<<<<<<<<<<<<<<<<<<<<<<<<<  
 
 
CLICK HERE TO GO TO PREVIOUS BULLETINS.

The Nexlab NY Page
The Nexlab NJ Page
The Nexlab CT Page Main Text Page